User: anonymous   Login
Location: Kaiser
(34.0939°N, 117.4889°W)
Time: 00:22:09
(UTC+00:00)
Language:

ADEOS - Orbit

View from above orbital plane
View from above orbital plane
View from above satellite
View from above satellite

Ground track
Ground track

The orbit data is extracted from the following two-line orbital elements,

1 24277U 96046A   21021.36180246 -.00000023  00000-0  91928-5 0  9993
2 24277  98.8999   7.0389 0002212  92.3869 267.7565 14.29459836273749
Epoch (UTC): 21 January 2021 08:40:59
Eccentricity: 0.0002212
inclination: 98.8999°
perigee height: 792 km
apogee height: 795 km
right ascension of ascending node: 7.0389°
argument of perigee: 92.3869°
revolutions per day: 14.29459836
mean anomaly at epoch: 267.7565°
orbit number at epoch: 27374

The dashed part of the orbit path shows where the satellite is in the earth's shadow,  

DLR